Simultaneous Nadir Overpasses (SNOs) Predictions

Prediction of SNOs between AQUA and NPP Satellite Orbit:

Table of predicted SNOs for the next 14.0 days since TLE Epoch: 8/21/2021
Index Date (AQUA) Time (AQUA) Lat,Lon (AQUA) SZA (AQUA ) Date (NPP) Time (NPP) Lat,Lon (NPP) SZA (NPP ) Distance(km) Time Diff (sec)
1 08/23/2021 13:16:04 74.58,-143.79 87.94 08/23/2021 13:15:00 74.58,-143.80 88.00 0.32 64
2 08/23/2021 14:05:09 -75.73, 26.92 93.35 08/23/2021 14:05:22 -75.72, 26.86 93.34 1.87 13
3 08/26/2021 05:32:24 75.00, -26.84 88.34 08/26/2021 05:31:48 75.00, -26.88 88.38 1.22 36
4 08/26/2021 06:21:31 -76.04, 143.74 92.84 08/26/2021 06:22:12 -76.03, 143.65 92.85 2.73 41
5 08/28/2021 21:48:44 75.41, 90.14 88.76 08/28/2021 21:48:36 75.40, 90.09 88.78 1.60 8
6 08/28/2021 22:37:44 -76.76, -97.96 92.81 08/28/2021 22:38:52 -76.77, -97.85 92.89 2.97 68
7 08/31/2021 13:15:56 -74.96, 37.16 89.86 08/31/2021 13:14:58 -74.96, 37.24 89.83 2.42 58
8 08/31/2021 14:05:03 75.85,-152.68 89.15 08/31/2021 14:05:23 75.85,-152.73 89.14 1.41 20
9 09/03/2021 05:32:14 -75.40, 154.26 89.45 09/03/2021 05:31:44 -75.42, 154.35 89.45 2.78 30



Historial Predications of SNOs between AQUA and NPP
